Location: Sternwarte ZA, Rosenfeld-Brittheim
(48.2889°N, 8.6789°E)
Time: 21:19:01
(UTC+01:00)

ISS - Pass Details

Date: 23 February 2021
Orbit: 417 x 422 km, 51.6° (Epoch: 02 March)

Event Time Altitude Azimuth Distance (km) Brightness Sun altitude
Exits shadow 04:47:51 14° 136° (SE) 1,283 -1.0 -25.6°
Maximum altitude 04:47:52 14° 136° (SE) 1,283 -1.0 -25.6°
Drops below altitude 10° 04:49:39 10° 103° (ESE) 1,495 -0.2 -25.3°
Sets 04:52:31 0° 77° (ENE) 2,364 1.5 -24.8°
